User: anonymous   Login
Location: ???????
(55.4362°N, 38.1183°E)
Time: 00:13:33
(UTC+00:00)
Language:

SL-4 R/B - Orbit

View from above orbital plane
View from above orbital plane
View from above satellite
View from above satellite

Ground track
Ground track

The orbit data is extracted from the following two-line orbital elements,

1 39679U 14021B   21262.61971950  .00000795  00000-0  55706-4 0  9991
2 39679  51.6146 135.4716 0170168  97.7596 264.2732 15.07148327408255
Epoch (UTC): 19 September 2021 14:52:23
Eccentricity: 0.0170168
inclination: 51.6146°
perigee height: 427 km
apogee height: 663 km
right ascension of ascending node: 135.4716°
argument of perigee: 97.7596°
revolutions per day: 15.07148327
mean anomaly at epoch: 264.2732°
orbit number at epoch: 40825

The dashed part of the orbit path shows where the satellite is in the earth's shadow,  

DLR